Wind_Speed
19 18 17 16 14 11 9 7 4 1 5 7 8 8 9 10 12 14 15 16 16 17 17 17 17 17 17 17 16 17 16 14 13 12 11 10 8 6 4 3 1 1 2 2
19 18 17 17 15 12 10 8 6 4 3 3 5 7 9 12 12 13 15 15 16 16 16 16 17 17 17 17 17 16 16 14 13 12 11 10 9 8 5 4 2 2 2 2
19 19 19 18 16 13 12 11 9 7 5 3 4 6 9 12 12 13 14 14 15 16 16 16 16 16 17 17 17 16 15 15 13 11 11 9 9 8 7 6 4 3 3 3
21 21 20 19 16 14 14 14 13 10 8 6 7 7 9 11 12 12 12 13 15 15 15 15 15 15 16 16 16 15 14 14 14 12 10 9 8 8 8 8 5 4 3 4
22 21 20 18 16 15 15 16 15 13 11 10 10 10 9 10 11 11 13 14 16 15 15 15 15 14 15 15 15 15 15 14 13 13 11 9 9 8 8 7 6 4 3 3
23 22 21 19 17 16 16 16 14 13 11 9 9 11 11 10 10 12 14 15 15 15 14 14 14 14 14 14 14 14 14 14 13 12 11 10 9 9 8 8 7 5 4 3
24 23 21 20 18 18 17 16 14 13 11 9 8 11 12 11 11 12 14 14 15 13 13 13 14 14 14 14 14 14 14 14 13 12 12 11 10 10 9 8 7 6 4 4
25 23 21 20 18 17 17 16 16 14 12 10 9 10 11 10 10 11 12 13 14 12 11 11 12 12 13 14 13 14 13 13 13 12 12 11 10 10 9 8 7 7 6 5
26 23 21 19 19 18 18 17 16 15 14 12 9 10 10 10 11 11 11 12 12 12 12 10 11 12 12 13 13 13 13 12 12 12 12 11 10 10 10 9 8 7 6 5
28 25 23 21 21 20 19 18 18 17 16 14 12 11 11 13 12 12 11 11 11 12 13 11 11 11 13 13 13 13 13 12 12 12 12 11 11 10 10 10 9 9 8 6
29 28 26 25 23 19 20 20 19 18 18 17 15 13 11 12 13 13 12 12 11 12 14 13 12 12 13 12 13 13 13 12 12 13 12 12 11 11 11 11 10 9 8 7
30 30 28 26 23 20 19 20 20 19 18 19 19 16 13 13 13 13 14 14 12 12 13 13 13 14 13 12 12 12 12 12 12 13 13 13 12 11 11 11 11 10 9 9
31 32 30 27 25 23 21 19 20 20 20 20 20 18 16 15 15 15 16 16 14 13 13 14 14 13 12 12 12 12 12 12 12 13 14 13 13 12 12 12 12 11 11 11
32 33 32 29 25 23 21 19 19 21 22 21 20 18 18 17 17 18 17 16 15 14 15 15 16 15 13 12 12 12 12 12 12 13 14 15 14 14 13 13 13 12 12 11
34 35 34 31 28 25 23 21 19 20 21 22 20 19 18 18 19 19 18 18 17 17 17 17 16 15 14 13 13 13 13 13 13 14 14 15 15 15 15 14 13 13 13 13
35 35 34 33 31 29 27 24 21 20 20 22 23 22 20 20 21 20 20 19 19 19 19 18 18 16 15 15 15 15 13 14 14 15 15 16 16 16 16 15 14 14 14 14
36 35 35 34 34 32 30 27 24 22 20 22 24 24 23 22 22 22 22 22 22 23 23 20 19 17 16 16 17 16 15 16 16 16 16 17 17 17 17 16 16 15 15 15
36 35 35 35 35 36 30 28 27 25 25 25 25 26 25 25 25 26 25 25 25 25 24 22 21 19 18 17 17 17 17 17 17 17 18 18 18 18 18 18 17 17 16 16
37 36 36 36 37 36 34 31 29 28 27 27 27 28 28 27 28 28 27 26 26 26 25 23 22 21 20 19 19 19 18 19 19 19 19 19 19 19 19 19 19 18 18 18
38 37 37 38 38 38 35 34 32 32 32 31 30 30 30 30 30 29 28 28 27 27 26 25 23 23 22 21 21 21 20 20 20 20 20 20 20 20 21 20 20 20 20 19
39 38 38 38 38 38 36 35 35 36 34 33 32 32 32 32 31 30 30 30 29 28 27 26 24 24 23 22 22 21 21 21 20 21 21 21 21 23 22 22 22 22 21 21
42 39 38 38 38 38 35 36 37 37 35 34 34 33 32 31 31 31 30 30 29 29 28 26 25 24 23 23 23 23 23 22 22 23 23 22 23 23 23 23 23 23 22 22
42 41 39 38 38 36 35 37 38 38 37 35 34 34 33 31 30 30 31 30 29 29 29 27 26 25 25 25 25 25 25 25 25 25 25 24 24 24 24 24 24 24 23 22
42 41 39 39 37 36 36 37 38 38 37 36 36 36 35 33 31 31 30 29 29 30 29 28 27 27 27 26 26 26 26 26 26 27 27 27 26 26 26 26 25 24 24 23
41 41 40 39 38 37 37 37 37 38 38 38 37 36 34 33 32 32 31 30 30 30 29 28 28 28 27 27 27 27 28 28 28 28 28 28 28 28 27 26 25 25 24 24
40 40 39 37 37 36 36 36 36 37 37 37 36 36 35 34 33 32 32 31 31 30 29 29 29 28 28 28 29 29 29 29 29 29 29 29 28 28 27 26 26 25 25 25
Wind_Direction
188 184 175 172 168 162 146 143 154 258 294 306 320 326 341 351 4 5 6 9 12 13 13 14 13 14 16 15 14 14 13 14 16 17 17 17 17 17 6 360 6 347 297 271
193 189 185 184 182 178 167 170 187 217 253 303 319 325 332 336 344 351 355 359 5 9 10 10 11 12 13 13 12 10 14 14 13 11 9 10 13 16 16 7 352 314 298 267
197 195 197 195 193 188 181 189 203 213 216 237 277 304 314 326 338 342 347 352 359 6 5 7 8 9 8 10 10 11 12 13 12 8 6 6 10 12 10 1 343 317 297 279
202 202 205 203 201 198 196 201 210 216 228 246 261 275 296 312 325 339 342 344 351 356 357 1 3 4 4 5 6 8 11 13 11 10 7 3 1 2 1 0 353 333 307 290
207 208 209 209 205 204 208 210 212 218 225 236 254 269 288 301 319 334 337 339 344 349 352 356 357 357 359 2 5 8 12 13 12 10 8 5 2 359 357 356 354 340 316 297
212 212 211 211 209 211 213 216 217 221 224 227 247 264 280 293 310 322 330 337 344 344 346 352 351 353 357 360 3 6 8 9 10 11 9 5 3 1 358 353 347 340 325 297
214 215 215 214 214 216 219 221 220 220 217 215 235 263 278 286 301 312 321 331 338 340 341 346 348 353 354 356 0 3 3 4 5 5 4 3 1 1 359 358 356 350 336 318
217 216 218 219 219 220 224 224 224 222 217 220 238 265 273 280 295 299 311 325 335 340 337 341 346 350 351 353 356 359 360 0 1 2 0 359 359 360 358 357 355 353 346 332
217 216 218 222 224 223 224 226 227 226 224 226 241 262 273 289 289 296 305 320 333 335 332 333 343 347 348 352 353 353 357 358 359 360 360 358 355 354 354 349 343 344 337 333
217 215 216 218 222 223 223 226 226 225 226 231 241 256 279 293 291 296 302 314 330 334 334 335 337 338 341 341 345 349 352 356 358 359 356 355 355 353 353 352 344 337 334 324
216 217 216 218 219 220 223 226 229 231 232 236 242 249 269 288 296 301 312 316 325 338 339 336 333 331 335 337 340 343 348 353 358 358 355 352 350 348 349 348 344 337 337 331
215 216 217 221 222 220 222 228 232 236 237 240 247 251 264 280 289 299 309 311 313 328 332 331 329 326 329 336 343 345 344 346 349 352 352 352 349 347 343 341 337 334 330 325
213 216 217 219 221 222 221 225 232 236 238 240 245 251 259 273 284 292 303 305 305 317 323 327 326 328 328 332 336 339 341 342 344 347 349 348 348 345 340 336 331 330 324 319
213 216 217 218 221 224 225 226 232 236 238 239 242 247 256 266 274 285 295 299 304 313 319 320 321 320 323 325 329 332 335 340 342 343 344 344 340 337 335 332 328 324 319 317
213 215 216 215 217 221 225 226 230 236 239 241 239 243 252 263 271 281 287 295 300 307 312 316 318 318 319 321 324 323 325 330 335 336 337 339 338 335 330 327 323 320 318 316
215 216 216 215 215 220 224 226 228 232 236 238 238 243 249 258 266 275 281 288 294 300 305 310 311 312 315 317 317 318 317 322 327 328 331 332 335 337 332 326 322 318 318 316
218 220 219 216 214 219 224 227 230 231 233 236 238 243 246 253 263 272 278 285 290 295 299 302 303 304 307 311 312 316 316 319 321 323 327 329 331 331 330 328 325 322 317 314
221 222 222 220 217 220 222 225 229 231 234 236 237 241 246 254 259 267 275 282 287 291 294 296 297 298 300 303 307 310 312 314 316 319 320 322 325 326 327 325 323 321 320 318
224 225 226 225 223 223 222 223 227 231 234 238 240 244 249 254 257 263 270 277 281 285 289 291 291 293 295 297 300 303 306 310 312 313 314 318 320 320 321 319 319 318 317 316
227 228 228 228 228 226 223 224 227 232 235 240 242 245 250 255 259 264 269 273 277 281 284 285 285 288 291 293 294 296 300 303 306 309 310 312 313 314 316 315 316 316 315 314
228 229 230 230 230 229 225 224 228 232 237 241 244 247 251 255 260 264 268 271 275 278 281 282 283 285 286 288 290 291 294 298 301 305 308 307 309 311 313 313 313 312 312 311
228 230 230 231 230 228 226 225 228 233 238 242 246 250 253 255 258 262 267 270 274 275 277 279 281 281 283 286 287 288 290 292 295 300 303 305 307 308 310 310 311 311 311 310
226 228 230 231 232 230 227 227 229 233 236 240 245 248 251 253 257 262 266 268 272 274 276 278 278 280 282 283 285 287 288 290 292 296 299 302 304 305 306 307 308 308 308 309
227 229 230 230 230 230 229 230 231 234 237 241 245 248 250 253 257 261 264 268 272 273 274 275 276 278 280 281 283 285 288 290 292 294 297 300 301 302 302 303 304 305 305 308
229 231 232 232 232 232 231 232 234 236 239 242 246 250 251 254 256 259 264 269 272 272 273 273 275 277 279 279 280 284 286 288 290 292 294 296 298 299 300 300 302 303 304 305
228 229 232 233 233 234 234 235 236 238 240 244 248 250 252 254 256 261 265 267 269 270 272 273 274 276 277 279 282 284 286 287 288 289 290 291 294 296 296 297 298 300 302 303
Height
5938 5942 5943 5945 5946 5947 5947 5948 5949 5950 5951 5951 5951 5950 5949 5948 5947 5947 5946 5944 5941 5939 5937 5934 5932 5929 5927 5924 5921 5918 5916 5913 5911 5909 5907 5906 5905 5904 5903 5902 5902 5902 5902 5902
5937 5940 5942 5943 5945 5945 5946 5947 5949 5949 5950 5950 5949 5948 5948 5947 5947 5947 5946 5945 5942 5940 5938 5935 5933 5930 5927 5925 5922 5918 5916 5914 5911 5909 5908 5906 5905 5903 5903 5902 5901 5901 5901 5901
5934 5938 5939 5941 5943 5944 5946 5947 5948 5948 5949 5949 5949 5948 5947 5947 5947 5946 5946 5945 5943 5941 5938 5936 5934 5931 5928 5925 5923 5919 5917 5914 5912 5909 5908 5906 5905 5903 5902 5901 5900 5900 5899 5899
5931 5934 5936 5939 5941 5942 5944 5945 5946 5947 5947 5948 5948 5948 5948 5947 5946 5946 5946 5945 5943 5941 5939 5936 5934 5931 5928 5926 5923 5920 5917 5915 5912 5910 5908 5906 5905 5903 5902 5901 5899 5898 5898 5898
5928 5931 5934 5936 5939 5940 5942 5943 5945 5946 5947 5947 5947 5947 5948 5946 5946 5946 5945 5944 5942 5940 5938 5936 5934 5931 5928 5926 5923 5920 5917 5915 5913 5910 5908 5906 5905 5903 5902 5900 5899 5898 5897 5897
5925 5927 5930 5933 5936 5938 5940 5941 5943 5944 5945 5946 5946 5946 5946 5944 5944 5944 5944 5943 5941 5940 5938 5935 5933 5931 5928 5926 5923 5920 5918 5915 5913 5910 5908 5906 5904 5903 5902 5900 5898 5897 5896 5896
5921 5924 5927 5930 5933 5935 5937 5940 5941 5942 5943 5944 5944 5943 5944 5943 5943 5943 5942 5941 5940 5938 5936 5934 5932 5930 5928 5925 5922 5920 5918 5915 5913 5911 5908 5906 5904 5903 5901 5900 5898 5897 5896 5895
5917 5921 5924 5927 5930 5932 5934 5937 5939 5940 5941 5941 5942 5941 5942 5941 5941 5941 5941 5940 5938 5937 5935 5933 5932 5929 5927 5925 5922 5920 5917 5915 5913 5910 5908 5906 5904 5902 5901 5899 5898 5896 5895 5894
5913 5918 5921 5923 5926 5929 5931 5933 5935 5937 5937 5938 5938 5939 5938 5938 5939 5939 5938 5937 5936 5935 5933 5932 5930 5928 5926 5923 5922 5920 5917 5915 5912 5910 5908 5905 5904 5902 5900 5899 5897 5895 5894 5893
5908 5913 5916 5919 5922 5924 5928 5929 5931 5933 5934 5935 5936 5936 5937 5936 5936 5936 5935 5934 5933 5933 5931 5929 5928 5927 5925 5923 5921 5919 5917 5914 5912 5909 5907 5905 5903 5901 5899 5897 5896 5894 5893 5891
5903 5907 5911 5914 5917 5921 5924 5926 5927 5929 5931 5932 5933 5936 5935 5934 5934 5933 5932 5932 5931 5931 5930 5929 5927 5925 5924 5922 5920 5918 5916 5913 5911 5908 5906 5904 5902 5900 5898 5896 5895 5893 5891 5890
5897 5901 5905 5909 5913 5916 5919 5922 5924 5926 5928 5928 5929 5934 5932 5931 5931 5931 5930 5930 5929 5929 5928 5927 5926 5924 5923 5921 5919 5917 5915 5913 5910 5908 5905 5903 5900 5898 5897 5895 5893 5891 5889 5888
5892 5896 5900 5904 5910 5912 5914 5917 5920 5922 5923 5924 5926 5930 5928 5928 5928 5928 5928 5928 5927 5928 5927 5926 5924 5922 5921 5919 5918 5916 5914 5911 5909 5906 5904 5902 5899 5897 5895 5893 5891 5889 5888 5886
5886 5890 5896 5900 5904 5907 5910 5913 5915 5917 5918 5920 5922 5924 5924 5924 5925 5925 5925 5925 5925 5925 5925 5924 5922 5921 5919 5918 5916 5914 5912 5910 5908 5905 5903 5900 5898 5895 5893 5891 5889 5887 5885 5884
5880 5884 5890 5895 5899 5902 5905 5908 5910 5912 5914 5916 5918 5919 5920 5921 5921 5921 5921 5922 5921 5922 5922 5921 5920 5918 5917 5915 5914 5912 5910 5908 5906 5903 5901 5899 5896 5893 5891 5889 5887 5885 5883 5881
5873 5878 5884 5890 5894 5896 5899 5903 5905 5907 5909 5911 5912 5914 5916 5917 5917 5917 5918 5919 5919 5919 5918 5918 5917 5915 5914 5912 5911 5909 5907 5905 5903 5901 5898 5896 5893 5891 5888 5886 5884 5882 5880 5878
5867 5873 5878 5884 5888 5891 5895 5899 5901 5902 5904 5906 5907 5910 5911 5912 5913 5913 5914 5915 5915 5915 5915 5914 5913 5912 5911 5909 5908 5905 5903 5902 5900 5897 5895 5893 5890 5888 5886 5883 5881 5879 5876 5874
5862 5867 5872 5877 5883 5885 5892 5894 5895 5897 5899 5900 5902 5904 5906 5908 5909 5909 5910 5911 5911 5910 5910 5910 5909 5908 5907 5906 5904 5902 5901 5899 5896 5894 5892 5890 5887 5885 5883 5880 5878 5875 5873 5871
5856 5861 5866 5870 5874 5879 5885 5887 5890 5891 5893 5895 5897 5899 5901 5903 5904 5905 5906 5906 5906 5906 5906 5905 5904 5904 5903 5901 5900 5899 5897 5895 5893 5891 5889 5886 5884 5882 5880 5877 5874 5872 5869 5867
5849 5854 5859 5863 5867 5871 5878 5881 5883 5886 5887 5890 5892 5894 5897 5898 5900 5901 5901 5901 5901 5901 5900 5900 5899 5899 5898 5897 5895 5894 5893 5891 5889 5887 5885 5883 5881 5878 5876 5873 5871 5868 5865 5862
5841 5846 5850 5855 5859 5863 5870 5874 5877 5880 5882 5884 5886 5889 5891 5893 5895 5896 5895 5895 5896 5895 5895 5894 5894 5893 5892 5892 5890 5889 5888 5886 5884 5882 5880 5878 5876 5874 5871 5869 5866 5864 5861 5858
5833 5838 5843 5847 5851 5858 5863 5866 5869 5872 5875 5878 5880 5882 5884 5885 5887 5889 5889 5889 5889 5889 5889 5888 5888 5887 5886 5885 5884 5883 5882 5881 5879 5877 5875 5873 5871 5869 5866 5864 5861 5859 5856 5853
5825 5831 5835 5840 5845 5850 5855 5858 5861 5864 5868 5871 5873 5875 5877 5879 5881 5882 5883 5883 5883 5883 5882 5882 5882 5881 5881 5880 5878 5877 5876 5875 5873 5872 5869 5867 5865 5863 5861 5858 5856 5853 5850 5847
5818 5823 5827 5831 5836 5841 5846 5850 5853 5857 5861 5864 5866 5867 5870 5872 5873 5875 5875 5875 5876 5876 5875 5875 5875 5874 5874 5873 5872 5871 5869 5868 5867 5865 5863 5861 5859 5857 5855 5852 5849 5847 5844 5842
5811 5815 5819 5823 5828 5833 5838 5842 5846 5850 5853 5856 5859 5860 5862 5864 5865 5867 5868 5868 5868 5868 5868 5868 5868 5868 5867 5866 5865 5864 5863 5862 5860 5859 5857 5855 5853 5851 5848 5846 5843 5841 5838 5836
5803 5808 5811 5816 5821 5826 5831 5835 5839 5842 5845 5847 5850 5852 5853 5856 5856 5858 5859 5860 5860 5860 5860 5860 5860 5860 5859 5859 5858 5856 5856 5855 5853 5852 5850 5848 5846 5844 5842 5839 5837 5834 5832 5829